,,,PA_Meas_PMT16A,,PR_Meas_QMR101_102,,RH_Meas_QMH101,,SR_Meas_QMS101,,TA_Meas_QMH101,,GenWind,,GenWind,
date,time,status,PA,status,PR,status,RH,status,SR,status,TA,status,DirAvg,status,SpdAvg,
2012-01-19, 00:00:04,VALID,1008.88,VALID,0,VALID,103.474,VALID,0,VALID,23.9278,VALID,126,VALID,0,
2012-01-19, 00:01:04,VALID,1008.88,VALID,0,VALID,103.451,VALID,0,VALID,23.9473,VALID,126,VALID,0.00429688,
2012-01-19, 00:02:04,VALID,1008.87,VALID,0,VALID,103.26,VALID,0,VALID,23.9278,VALID,126,VALID,0.210547,
2012-01-19, 00:03:04,VALID,1008.88,VALID,0,VALID,103.26,VALID,0,VALID,23.9278,VALID,126,VALID,0.392188,
2012-01-19, 00:04:04,VALID,1008.89,VALID,0,VALID,103.154,VALID,0,VALID,23.9084,VALID,126,VALID,0.416406,
2012-01-19, 00:05:04,VALID,1008.88,VALID,0,VALID,103.131,VALID,0,VALID,23.8871,VALID,126,VALID,0.313281,
2012-01-19, 00:06:04,VALID,1008.88,VALID,0,VALID,103.253,VALID,0,VALID,23.9084,VALID,126,VALID,0.226172,
2012-01-19, 00:07:04,VALID,1008.89,VALID,0,VALID,103.481,VALID,0,VALID,23.9084,VALID,126,VALID,0.134375,
2012-01-19, 00:08:04,VALID,1008.88,VALID,0,VALID,103.634,VALID,0,VALID,23.9278,VALID,126,VALID,0,
2012-01-19, 00:09:04,VALID,1008.88,VALID,0,VALID,103.581,VALID,0,VALID,23.9084,VALID,126,VALID,0.235156,
2012-01-19, 00:10:04,VALID,1008.89,VALID,0,VALID,103.596,VALID,0,VALID,23.9084,VALID,126,VALID,0.0921875,
2012-01-19, 00:11:04,VALID,1008.86,VALID,0,VALID,103.741,VALID,0,VALID,23.9084,VALID,126,VALID,0.207031,
2012-01-19, 00:12:04,VALID,1008.88,VALID,0,VALID,103.87,VALID,0,VALID,23.8889,VALID,126,VALID,0.0808594,
2012-01-19, 00:13:04,VALID,1008.87,VALID,0,VALID,103.848,VALID,0,VALID,23.8907,VALID,126,VALID,0.146094,
2012-01-19, 00:14:04,VALID,1008.88,VALID,0,VALID,103.916,VALID,0,VALID,23.8889,VALID,126,VALID,0.691016,
2012-01-19, 00:15:04,VALID,1008.91,VALID,0,VALID,103.855,VALID,0,VALID,23.8907,VALID,126,VALID,0.577344,
2012-01-19, 00:16:04,VALID,1008.89,VALID,0,VALID,103.855,VALID,0,VALID,23.8694,VALID,126,VALID,0.415234,
2012-01-19, 00:17:04,VALID,1008.88,VALID,0,VALID,103.832,VALID,0,VALID,23.8694,VALID,157,VALID,0.774609,
2012-01-19, 00:18:04,VALID,1008.87,VALID,0,VALID,103.733,VALID,0,VALID,23.8499,VALID,166,VALID,0.6875,
2012-01-19, 00:19:04,VALID,1008.88,VALID,0,VALID,103.741,VALID,0,VALID,23.8499,VALID,165,VALID,0.475,
2012-01-19, 00:20:04,VALID,1008.87,VALID,0,VALID,103.962,VALID,0,VALID,23.8499,VALID,165,VALID,0.48125,
2012-01-19, 00:21:04,VALID,1008.82,VALID,0,VALID,104,VALID,0,VALID,23.8499,VALID,165,VALID,0.241797,
2012-01-19, 00:22:04,VALID,1008.83,VALID,0,VALID,103.962,VALID,0,VALID,23.8304,VALID,145,VALID,0.683984,
2012-01-19, 00:23:04,VALID,1008.79,VALID,0,VALID,103.901,VALID,0,VALID,23.8304,VALID,145,VALID,0.703125,
2012-01-19, 00:24:04,VALID,1008.78,VALID,0,VALID,103.916,VALID,0,VALID,23.8304,VALID,145,VALID,0.298438,
2012-01-19, 00:25:04,VALID,1008.78,VALID,0,VALID,104,VALID,0,VALID,23.8304,VALID,145,VALID,0.0410156,
2012-01-19, 00:26:04,VALID,1008.78,VALID,0,VALID,104,VALID,0,VALID,23.8304,VALID,144,VALID,0.332812,
2012-01-19, 00:27:04,VALID,1008.78,VALID,0,VALID,104,VALID,0.112112,VALID,23.8304,VALID,144,VALID,0.254297,
2012-01-19, 00:28:04,VALID,1008.76,VALID,0,VALID,103.97,VALID,0,VALID,23.8109,VALID,144,VALID,0.3875,
2012-01-19, 00:29:04,VALID,1008.74,VALID,0,VALID,103.863,VALID,0,VALID,23.8109,VALID,144,VALID,0.382813,
2012-01-19, 00:30:04,VALID,1008.73,VALID,0,VALID,103.886,VALID,0,VALID,23.8304,VALID,144,VALID,0.337109,
2012-01-19, 00:31:04,VALID,1008.71,VALID,0,VALID,103.779,VALID,0,VALID,23.8304,VALID,144,VALID,0,
2012-01-19, 00:32:04,VALID,1008.71,VALID,0,VALID,103.817,VALID,0,VALID,23.8304,VALID,144,VALID,0.0265625,
2012-01-19, 00:33:04,VALID,1008.73,VALID,0,VALID,103.886,VALID,0,VALID,23.8304,VALID,144,VALID,0,
2012-01-19, 00:34:04,VALID,1008.71,VALID,0,VALID,103.901,VALID,0,VALID,23.8304,VALID,144,VALID,0.0886719,
2012-01-19, 00:35:04,VALID,1008.67,VALID,0,VALID,103.893,VALID,0,VALID,23.8304,VALID,144,VALID,0.187109,
2012-01-19, 00:36:04,VALID,1008.69,VALID,0,VALID,103.909,VALID,0,VALID,23.8517,VALID,144,VALID,0.219531,
2012-01-19, 00:37:04,VALID,1008.67,VALID,0,VALID,103.901,VALID,0.112112,VALID,23.8304,VALID,144,VALID,0.183984,
2012-01-19, 00:38:04,VALID,1008.7,VALID,0,VALID,103.962,VALID,0,VALID,23.8109,VALID,144,VALID,0.128125,
2012-01-19, 00:39:04,VALID,1008.71,VALID,0,VALID,103.992,VALID,0,VALID,23.8109,VALID,144,VALID,0.252734,
2012-01-19, 00:40:04,VALID,1008.7,VALID,0,VALID,103.909,VALID,0,VALID,23.8109,VALID,144,VALID,0.152344,
2012-01-19, 00:41:04,VALID,1008.69,VALID,0,VALID,103.893,VALID,0,VALID,23.8109,VALID,144,VALID,0.0609375,
2012-01-19, 00:42:04,VALID,1008.71,VALID,0,VALID,103.832,VALID,0,VALID,23.8109,VALID,144,VALID,0.363672,
2012-01-19, 00:43:04,VALID,1008.69,VALID,0,VALID,103.848,VALID,0,VALID,23.7914,VALID,144,VALID,0.376172,
2012-01-19, 00:44:04,VALID,1008.73,VALID,0,VALID,103.855,VALID,0,VALID,23.8127,VALID,144,VALID,0.249219,
2012-01-19, 00:45:04,VALID,1008.72,VALID,0,VALID,103.886,VALID,0,VALID,23.772,VALID,144,VALID,0.201953,
2012-01-19, 00:46:04,VALID,1008.72,VALID,0,VALID,103.916,VALID,0,VALID,23.7932,VALID,144,VALID,0.441016,
2012-01-19, 00:47:04,VALID,1008.72,VALID,0,VALID,103.985,VALID,0,VALID,23.7525,VALID,144,VALID,0,
2012-01-19, 00:48:04,VALID,1008.72,VALID,0,VALID,104,VALID,0,VALID,23.772,VALID,144,VALID,0.147266,
2012-01-19, 00:49:04,VALID,1008.71,VALID,0,VALID,103.947,VALID,0,VALID,23.7525,VALID,144,VALID,0.4875,
2012-01-19, 00:50:04,VALID,1008.72,VALID,0,VALID,103.962,VALID,0,VALID,23.7525,VALID,144,VALID,0.490625,
2012-01-19, 00:51:04,VALID,1008.7,VALID,0,VALID,103.924,VALID,0,VALID,23.7525,VALID,144,VALID,0.454688,
2012-01-19, 00:52:04,VALID,1008.71,VALID,0,VALID,104,VALID,0,VALID,23.7525,VALID,144,VALID,0.273047,
2012-01-19, 00:53:04,VALID,1008.71,VALID,0,VALID,104,VALID,0,VALID,23.7525,VALID,144,VALID,0.434766,
2012-01-19, 00:54:05,VALID,1008.74,VALID,0,VALID,104,VALID,0,VALID,23.7525,VALID,144,VALID,0.101172,
2012-01-19, 00:55:05,VALID,1008.71,VALID,0,VALID,104,VALID,0,VALID,23.7525,VALID,144,VALID,0.328906,
2012-01-19, 00:56:05,VALID,1008.73,VALID,0,VALID,104,VALID,0,VALID,23.7525,VALID,144,VALID,0.342578,
2012-01-19, 00:57:05,VALID,1008.72,VALID,0,VALID,104,VALID,0,VALID,23.772,VALID,144,VALID,0.167578,
2012-01-19, 00:58:05,VALID,1008.73,VALID,0,VALID,104,VALID,0,VALID,23.7525,VALID,144,VALID,0,
2012-01-19, 00:59:05,VALID,1008.74,VALID,0,VALID,104,VALID,0,VALID,23.772,VALID,144,VALID,0,
2012-01-19, 01:00:05,VALID,1008.7,VALID,0,VALID,104,VALID,0,VALID,23.7525,VALID,144,VALID,0,
2012-01-19, 01:01:05,VALID,1008.71,VALID,0,VALID,104,VALID,0,VALID,23.733,VALID,144,VALID,0,
2012-01-19, 01:02:05,VALID,1008.71,VALID,0,VALID,104,VALID,0,VALID,23.733,VALID,144,VALID,0.388281,
2012-01-19, 01:03:05,VALID,1008.71,VALID,0,VALID,104,VALID,0,VALID,23.733,VALID,144,VALID,0.351172,
2012-01-19, 01:04:05,VALID,1008.72,VALID,0,VALID,104,VALID,0,VALID,23.733,VALID,144,VALID,0,
2012-01-19, 01:05:05,VALID,1008.69,VALID,0,VALID,104,VALID,0,VALID,23.733,VALID,144,VALID,0,
2012-01-19, 01:06:05,VALID,1008.69,VALID,0,VALID,104,VALID,0,VALID,23.733,VALID,144,VALID,0,
2012-01-19, 01:07:05,VALID,1008.67,VALID,0,VALID,104,VALID,0,VALID,23.733,VALID,144,VALID,0,
2012-01-19, 01:08:05,VALID,1008.68,VALID,0,VALID,104,VALID,0,VALID,23.733,VALID,144,VALID,0,
2012-01-19, 01:09:05,VALID,1008.69,VALID,0,VALID,104,VALID,0,VALID,23.7135,VALID,144,VALID,0,
2012-01-19, 01:10:05,VALID,1008.68,VALID,0,VALID,104,VALID,0,VALID,23.7135,VALID,144,VALID,0,
2012-01-19, 01:11:05,VALID,1008.68,VALID,0,VALID,104,VALID,0,VALID,23.733,VALID,144,VALID,0,
2012-01-19, 01:12:05,VALID,1008.66,VALID,0,VALID,104,VALID,0,VALID,23.7135,VALID,144,VALID,0,
2012-01-19, 01:13:05,VALID,1008.67,VALID,0,VALID,104,VALID,0,VALID,23.7135,VALID,144,VALID,0.340625,
2012-01-19, 01:14:05,VALID,1008.68,VALID,0,VALID,104,VALID,0,VALID,23.6745,VALID,144,VALID,0.403516,
2012-01-19, 01:15:05,VALID,1008.68,VALID,0,VALID,104,VALID,0,VALID,23.655,VALID,144,VALID,0.441406,
2012-01-19, 01:16:05,VALID,1008.68,VALID,0,VALID,104,VALID,0,VALID,23.6356,VALID,144,VALID,0.366797,
2012-01-19, 01:17:05,VALID,1008.69,VALID,0,VALID,104,VALID,0,VALID,23.6161,VALID,144,VALID,0.2,
2012-01-19, 01:18:05,VALID,1008.66,VALID,0,VALID,104,VALID,0,VALID,23.6161,VALID,144,VALID,0.110937,
2012-01-19, 01:19:05,VALID,1008.65,VALID,0,VALID,104,VALID,0,VALID,23.5966,VALID,144,VALID,0,
2012-01-19, 01:20:05,VALID,1008.64,VALID,0,VALID,104,VALID,0,VALID,23.5771,VALID,126,VALID,0.64375,
2012-01-19, 01:21:05,VALID,1008.66,VALID,0,VALID,104,VALID,0,VALID,23.5966,VALID,114,VALID,0.596094,
2012-01-19, 01:22:05,VALID,1008.63,VALID,0,VALID,104,VALID,0,VALID,23.6356,VALID,106,VALID,0.516406,
2012-01-19, 01:23:05,VALID,1008.61,VALID,0,VALID,104,VALID,0,VALID,23.655,VALID,108,VALID,0.376563,
2012-01-19, 01:24:05,VALID,1008.62,VALID,0,VALID,104,VALID,0,VALID,23.6745,VALID,108,VALID,0.485156,
2012-01-19, 01:25:05,VALID,1008.61,VALID,0,VALID,104,VALID,0,VALID,23.694,VALID,108,VALID,0.5875,
2012-01-19, 01:26:05,VALID,1008.58,VALID,0,VALID,104,VALID,0,VALID,23.7135,VALID,108,VALID,0.366797,
2012-01-19, 01:27:05,VALID,1008.58,VALID,0,VALID,104,VALID,0,VALID,23.733,VALID,108,VALID,0.394531,
2012-01-19, 01:28:05,VALID,1008.57,VALID,0,VALID,104,VALID,0,VALID,23.7135,VALID,107,VALID,0.279297,
2012-01-19, 01:29:05,VALID,1008.54,VALID,0,VALID,104,VALID,0,VALID,23.7135,VALID,74,VALID,0.307422,
2012-01-19, 01:30:05,VALID,1008.5,VALID,0,VALID,104,VALID,0,VALID,23.694,VALID,74,VALID,0.442187,
2012-01-19, 01:31:05,VALID,1008.47,VALID,0,VALID,104,VALID,0,VALID,23.694,VALID,74,VALID,0.277734,
2012-01-19, 01:32:05,VALID,1008.47,VALID,0,VALID,104,VALID,0,VALID,23.6745,VALID,74,VALID,0.385547,
2012-01-19, 01:33:05,VALID,1008.44,VALID,0,VALID,104,VALID,0,VALID,23.655,VALID,74,VALID,0.362109,
2012-01-19, 01:34:05,VALID,1008.44,VALID,0,VALID,104,VALID,0,VALID,23.6356,VALID,74,VALID,0.283203,
2012-01-19, 01:35:05,VALID,1008.43,VALID,0,VALID,104,VALID,0,VALID,23.6161,VALID,59,VALID,0.228125,
2012-01-19, 01:36:05,VALID,1008.41,VALID,0,VALID,104,VALID,0,VALID,23.5771,VALID,59,VALID,0.0453125,
2012-01-19, 01:37:05,VALID,1008.4,VALID,0,VALID,104,VALID,0,VALID,23.5363,VALID,59,VALID,0.291016,
2012-01-19, 01:38:05,VALID,1008.37,VALID,0,VALID,104,VALID,0,VALID,23.5594,VALID,59,VALID,0.236328,
2012-01-19, 01:39:05,VALID,1008.39,VALID,0,VALID,104,VALID,0,VALID,23.5381,VALID,59,VALID,0.180469,
2012-01-19, 01:40:05,VALID,1008.37,VALID,0,VALID,104,VALID,0,VALID,23.4974,VALID,59,VALID,0.276563,
2012-01-19, 01:41:05,VALID,1008.35,VALID,0,VALID,104,VALID,0,VALID,23.4992,VALID,59,VALID,0.148438,
2012-01-19, 01:42:05,VALID,1008.32,VALID,0,VALID,104,VALID,0,VALID,23.4992,VALID,59,VALID,0.0945313,
2012-01-19, 01:43:05,VALID,1008.29,VALID,0,VALID,104,VALID,0,VALID,23.4992,VALID,59,VALID,0,
2012-01-19, 01:44:05,VALID,1008.31,VALID,0,VALID,104,VALID,0,VALID,23.4797,VALID,59,VALID,0.221094,
2012-01-19, 01:45:05,VALID,1008.29,VALID,0,VALID,104,VALID,0,VALID,23.4602,VALID,59,VALID,0.021875,
2012-01-19, 01:46:05,VALID,1008.29,VALID,0,VALID,104,VALID,0,VALID,23.4797,VALID,59,VALID,0,
2012-01-19, 01:47:05,VALID,1008.28,VALID,0,VALID,104,VALID,0,VALID,23.4389,VALID,59,VALID,0,
2012-01-19, 01:48:05,VALID,1008.27,VALID,0,VALID,104,VALID,0,VALID,23.4602,VALID,59,VALID,0.14375,
2012-01-19, 01:49:05,VALID,1008.26,VALID,0,VALID,104,VALID,0,VALID,23.4407,VALID,59,VALID,0.139844,
2012-01-19, 01:50:05,VALID,1008.26,VALID,0,VALID,104,VALID,0,VALID,23.4602,VALID,59,VALID,0.13125,
2012-01-19, 01:51:05,VALID,1008.27,VALID,0,VALID,104,VALID,0,VALID,23.4407,VALID,59,VALID,0.0195313,
2012-01-19, 01:52:05,VALID,1008.25,VALID,0,VALID,104,VALID,0,VALID,23.4602,VALID,59,VALID,0,
2012-01-19, 01:53:05,VALID,1008.24,VALID,0,VALID,104,VALID,0,VALID,23.4602,VALID,59,VALID,0.0015625,
2012-01-19, 01:54:05,VALID,1008.25,VALID,0,VALID,104,VALID,0,VALID,23.4407,VALID,59,VALID,0.199219,
2012-01-19, 01:55:05,VALID,1008.25,VALID,0,VALID,104,VALID,0,VALID,23.4602,VALID,59,VALID,0.116016,
2012-01-19, 01:56:05,VALID,1008.25,VALID,0,VALID,104,VALID,0,VALID,23.4602,VALID,59,VALID,0.0203125,
2012-01-19, 01:57:05,VALID,1008.25,VALID,0,VALID,104,VALID,0,VALID,23.4602,VALID,59,VALID,0.00585938,
2012-01-19, 01:58:05,VALID,1008.26,VALID,0,VALID,104,VALID,0,VALID,23.4602,VALID,59,VALID,0.003125,
2012-01-19, 01:59:05,VALID,1008.25,VALID,0,VALID,104,VALID,0,VALID,23.4407,VALID,59,VALID,0.135547,
2012-01-19, 02:00:05,VALID,1008.25,VALID,0,VALID,104,VALID,0,VALID,23.4815,VALID,59,VALID,0,
2012-01-19, 02:01:05,VALID,1008.25,VALID,0,VALID,104,VALID,0,VALID,23.4602,VALID,59,VALID,0,
2012-01-19, 02:02:05,VALID,1008.27,VALID,0,VALID,104,VALID,0,VALID,23.4602,VALID,59,VALID,0,
2012-01-19, 02:03:05,VALID,1008.27,VALID,0,VALID,104,VALID,0,VALID,23.4602,VALID,59,VALID,0,
2012-01-19, 02:04:05,VALID,1008.26,VALID,0,VALID,104,VALID,0,VALID,23.5009,VALID,59,VALID,0,
2012-01-19, 02:05:05,VALID,1008.28,VALID,0,VALID,104,VALID,0,VALID,23.4389,VALID,59,VALID,0.0636719,
2012-01-19, 02:06:05,VALID,1008.28,VALID,0,VALID,104,VALID,0,VALID,23.4602,VALID,60,VALID,0.530469,
2012-01-19, 02:07:05,VALID,1008.3,VALID,0,VALID,104,VALID,0,VALID,23.4992,VALID,60,VALID,0.0519531,
2012-01-19, 02:08:05,VALID,1008.27,VALID,0,VALID,104,VALID,0,VALID,23.4992,VALID,60,VALID,0.272266,
2012-01-19, 02:09:05,VALID,1008.26,VALID,0,VALID,104,VALID,0,VALID,23.5186,VALID,60,VALID,0.191406,
2012-01-19, 02:10:05,VALID,1008.24,VALID,0,VALID,104,VALID,0,VALID,23.4974,VALID,89,VALID,0.459766,
2012-01-19, 02:11:05,VALID,1008.22,VALID,0,VALID,104,VALID,0,VALID,23.5186,VALID,89,VALID,0.613672,
2012-01-19, 02:12:05,VALID,1008.25,VALID,0,VALID,104,VALID,0,VALID,23.5381,VALID,90,VALID,0.462891,
2012-01-19, 02:13:05,VALID,1008.21,VALID,0,VALID,104,VALID,0,VALID,23.5381,VALID,108,VALID,0.648438,
2012-01-19, 02:14:05,VALID,1008.18,VALID,0,VALID,104,VALID,0,VALID,23.5381,VALID,108,VALID,0.278906,
2012-01-19, 02:15:05,VALID,1008.17,VALID,0,VALID,104,VALID,0,VALID,23.5576,VALID,108,VALID,0.517969,
2012-01-19, 02:16:05,VALID,1008.15,VALID,0,VALID,104,VALID,0,VALID,23.5576,VALID,108,VALID,0.263281,
2012-01-19, 02:17:05,VALID,1008.15,VALID,0,VALID,104,VALID,0,VALID,23.5576,VALID,108,VALID,0.514063,
2012-01-19, 02:18:05,VALID,1008.12,VALID,0,VALID,104,VALID,0,VALID,23.5558,VALID,108,VALID,0.294531,
2012-01-19, 02:19:05,VALID,1008.11,VALID,0,VALID,104,VALID,0,VALID,23.5771,VALID,91,VALID,0.888281,
2012-01-19, 02:20:05,VALID,1008.1,VALID,0,VALID,104,VALID,0,VALID,23.5771,VALID,91,VALID,0.361719,
2012-01-19, 02:21:05,VALID,1008.1,VALID,0,VALID,104,VALID,0,VALID,23.5966,VALID,91,VALID,0,
2012-01-19, 02:22:05,VALID,1008.07,VALID,0,VALID,104,VALID,0,VALID,23.6179,VALID,91,VALID,0.0671875,
2012-01-19, 02:23:05,VALID,1008.09,VALID,0,VALID,104,VALID,0,VALID,23.5771,VALID,91,VALID,0.0789063,
2012-01-19, 02:24:05,VALID,1008.08,VALID,0,VALID,104,VALID,0,VALID,23.5771,VALID,91,VALID,0.0132813,
2012-01-19, 02:25:05,VALID,1008.06,VALID,0,VALID,104,VALID,0,VALID,23.5558,VALID,91,VALID,0.275391,
2012-01-19, 02:26:05,VALID,1008.09,VALID,0,VALID,104,VALID,0,VALID,23.5576,VALID,91,VALID,0.384375,
2012-01-19, 02:27:05,VALID,1008.07,VALID,0,VALID,104,VALID,0,VALID,23.5771,VALID,91,VALID,0.533594,
2012-01-19, 02:28:05,VALID,1008.09,VALID,0,VALID,104,VALID,0,VALID,23.5984,VALID,91,VALID,0.331641,
2012-01-19, 02:29:05,VALID,1008.06,VALID,0,VALID,104,VALID,0,VALID,23.5576,VALID,91,VALID,0.564844,
2012-01-19, 02:30:05,VALID,1008.07,VALID,0,VALID,104,VALID,0,VALID,23.5771,VALID,91,VALID,0.424219,
2012-01-19, 02:31:05,VALID,1008.03,VALID,0,VALID,104,VALID,0,VALID,23.5771,VALID,91,VALID,0.334375,
2012-01-19, 02:32:05,VALID,1008.06,VALID,0,VALID,104,VALID,0,VALID,23.5771,VALID,91,VALID,0.444922,
2012-01-19, 02:33:05,VALID,1008.05,VALID,0,VALID,104,VALID,0,VALID,23.5966,VALID,113,VALID,0.670703,
2012-01-19, 02:34:05,VALID,1008.06,VALID,0,VALID,104,VALID,0,VALID,23.5771,VALID,131,VALID,0.723828,
2012-01-19, 02:35:05,VALID,1008.05,VALID,0,VALID,104,VALID,0,VALID,23.5771,VALID,131,VALID,0.733203,
2012-01-19, 02:36:05,VALID,1008.05,VALID,0,VALID,104,VALID,0,VALID,23.5381,VALID,133,VALID,0.562109,
2012-01-19, 02:37:05,VALID,1008.05,VALID,0,VALID,104,VALID,0,VALID,23.5381,VALID,133,VALID,0.437891,
2012-01-19, 02:38:05,VALID,1008.04,VALID,0,VALID,104,VALID,0,VALID,23.5186,VALID,128,VALID,0.721484,
2012-01-19, 02:39:05,VALID,1008.04,VALID,0,VALID,104,VALID,0,VALID,23.5186,VALID,128,VALID,0.665625,
2012-01-19, 02:40:05,VALID,1008.03,VALID,0,VALID,104,VALID,0,VALID,23.5186,VALID,128,VALID,0.613281,
2012-01-19, 02:41:05,VALID,1008.02,VALID,0,VALID,104,VALID,0,VALID,23.5186,VALID,128,VALID,0.551562,
2012-01-19, 02:42:05,VALID,1008.04,VALID,0,VALID,104,VALID,0,VALID,23.5186,VALID,122,VALID,0.640625,
2012-01-19, 02:43:05,VALID,1008.06,VALID,0,VALID,104,VALID,0,VALID,23.5186,VALID,130,VALID,0.407031,
2012-01-19, 02:44:05,VALID,1008.03,VALID,0,VALID,104,VALID,0,VALID,23.4992,VALID,131,VALID,0.785156,
2012-01-19, 02:45:05,VALID,1008.03,VALID,0,VALID,104,VALID,0,VALID,23.4992,VALID,132,VALID,1.04961,
2012-01-19, 02:46:05,VALID,1008.04,VALID,0,VALID,104,VALID,0,VALID,23.4992,VALID,131,VALID,0.547266,
2012-01-19, 02:47:05,VALID,1008.04,VALID,0,VALID,104,VALID,0,VALID,23.4992,VALID,131,VALID,0.735937,
2012-01-19, 02:48:05,VALID,1008.06,VALID,0,VALID,104,VALID,0,VALID,23.4992,VALID,136,VALID,0.808203,
2012-01-19, 02:49:05,VALID,1008.07,VALID,0,VALID,104,VALID,0,VALID,23.4992,VALID,142,VALID,0.530469,
2012-01-19, 02:50:05,VALID,1008.07,VALID,0,VALID,104,VALID,0,VALID,23.4602,VALID,143,VALID,0.422656,
2012-01-19, 02:51:05,VALID,1008.05,VALID,0,VALID,104,VALID,0,VALID,23.4815,VALID,155,VALID,0.715625,
2012-01-19, 02:52:05,VALID,1008.06,VALID,0,VALID,104,VALID,0,VALID,23.4602,VALID,148,VALID,0.566797,
2012-01-19, 02:53:05,VALID,1008.03,VALID,0,VALID,104,VALID,0,VALID,23.4407,VALID,146,VALID,0.792969,
2012-01-19, 02:54:05,VALID,1008.03,VALID,0,VALID,104,VALID,0,VALID,23.4407,VALID,145,VALID,0.603906,
2012-01-19, 02:55:05,VALID,1008.03,VALID,0,VALID,104,VALID,0,VALID,23.4602,VALID,136,VALID,0.430859,
2012-01-19, 02:56:05,VALID,1008.03,VALID,0,VALID,104,VALID,0,VALID,23.4602,VALID,136,VALID,0.521484,
2012-01-19, 02:57:05,VALID,1008.05,VALID,0,VALID,104,VALID,0,VALID,23.4602,VALID,136,VALID,0.503125,
2012-01-19, 02:58:05,VALID,1008.02,VALID,0,VALID,104,VALID,0,VALID,23.4602,VALID,123,VALID,0.486328,
2012-01-19, 02:59:05,VALID,1008,VALID,0,VALID,104,VALID,0,VALID,23.4602,VALID,108,VALID,0.487891,
2012-01-19, 03:00:05,VALID,1007.99,VALID,0,VALID,104,VALID,0,VALID,23.4602,VALID,108,VALID,0.578125,
2012-01-19, 03:01:05,VALID,1008,VALID,0,VALID,104,VALID,0,VALID,23.5009,VALID,108,VALID,0.219922,
2012-01-19, 03:02:05,VALID,1007.99,VALID,0,VALID,104,VALID,0,VALID,23.4602,VALID,108,VALID,0.302344,
2012-01-19, 03:03:05,VALID,1007.98,VALID,0,VALID,104,VALID,0,VALID,23.4797,VALID,108,VALID,0.391797,
2012-01-19, 03:04:05,VALID,1008.01,VALID,0,VALID,104,VALID,0,VALID,23.4797,VALID,80,VALID,0.855859,
2012-01-19, 03:05:05,VALID,1007.99,VALID,0,VALID,104,VALID,0,VALID,23.4797,VALID,86,VALID,0.544922,
2012-01-19, 03:06:05,VALID,1008,VALID,0,VALID,104,VALID,0,VALID,23.5204,VALID,104,VALID,0.863281,
2012-01-19, 03:07:05,VALID,1007.99,VALID,0,VALID,104,VALID,0,VALID,23.4992,VALID,100,VALID,0.722656,
2012-01-19, 03:08:05,VALID,1008.01,VALID,0,VALID,104,VALID,0,VALID,23.5186,VALID,100,VALID,0.548828,
2012-01-19, 03:09:05,VALID,1008.04,VALID,0,VALID,104,VALID,0,VALID,23.5381,VALID,111,VALID,0.438672,
2012-01-19, 03:10:05,VALID,1008.02,VALID,0,VALID,104,VALID,0,VALID,23.5381,VALID,111,VALID,0.335938,
2012-01-19, 03:11:05,VALID,1008.04,VALID,0,VALID,104,VALID,0,VALID,23.5576,VALID,111,VALID,0.065625,
2012-01-19, 03:12:05,VALID,1007.99,VALID,0,VALID,104,VALID,0,VALID,23.5381,VALID,111,VALID,0,
2012-01-19, 03:13:05,VALID,1007.99,VALID,0,VALID,104,VALID,0,VALID,23.5576,VALID,111,VALID,0,
2012-01-19, 03:14:05,VALID,1007.97,VALID,0,VALID,104,VALID,0,VALID,23.5771,VALID,111,VALID,0.190234,
2012-01-19, 03:15:05,VALID,1007.98,VALID,0,VALID,104,VALID,0,VALID,23.5576,VALID,81,VALID,0.511328,
2012-01-19, 03:16:05,VALID,1007.99,VALID,0,VALID,104,VALID,0,VALID,23.5576,VALID,80,VALID,0.489062,
2012-01-19, 03:17:05,VALID,1007.98,VALID,0,VALID,104,VALID,0,VALID,23.5381,VALID,78,VALID,0.664063,
2012-01-19, 03:18:05,VALID,1007.99,VALID,0,VALID,104,VALID,0,VALID,23.5576,VALID,78,VALID,0.528906,
2012-01-19, 03:19:05,VALID,1008,VALID,0,VALID,104,VALID,0,VALID,23.5771,VALID,78,VALID,0.741406,
2012-01-19, 03:20:05,VALID,1007.97,VALID,0,VALID,104,VALID,0.112112,VALID,23.5771,VALID,78,VALID,0.524609,
2012-01-19, 03:21:05,VALID,1007.97,VALID,0,VALID,104,VALID,0,VALID,23.5771,VALID,78,VALID,0.179688,
2012-01-19, 03:22:05,VALID,1007.98,VALID,0,VALID,104,VALID,0,VALID,23.5966,VALID,78,VALID,0.424609,
2012-01-19, 03:23:05,VALID,1007.96,VALID,0,VALID,104,VALID,0,VALID,23.5771,VALID,78,VALID,0.360156,
2012-01-19, 03:24:05,VALID,1007.95,VALID,0,VALID,104,VALID,0,VALID,23.5771,VALID,65,VALID,0.714844,
2012-01-19, 03:25:05,VALID,1007.93,VALID,0,VALID,104,VALID,0,VALID,23.5771,VALID,54,VALID,0.172656,
2012-01-19, 03:26:05,VALID,1007.92,VALID,0,VALID,104,VALID,0,VALID,23.5576,VALID,54,VALID,0.407031,
2012-01-19, 03:27:05,VALID,1007.87,VALID,0,VALID,104,VALID,0,VALID,23.5576,VALID,53,VALID,0.557422,
2012-01-19, 03:28:05,VALID,1007.84,VALID,0,VALID,104,VALID,0,VALID,23.5576,VALID,53,VALID,0.61875,
2012-01-19, 03:29:05,VALID,1007.82,VALID,0,VALID,104,VALID,0,VALID,23.5576,VALID,62,VALID,0.443359,
2012-01-19, 03:30:05,VALID,1007.83,VALID,0,VALID,104,VALID,0.112112,VALID,23.5381,VALID,62,VALID,0.244922,
2012-01-19, 03:31:05,VALID,1007.83,VALID,0,VALID,104,VALID,0,VALID,23.5381,VALID,62,VALID,0.259766,
2012-01-19, 03:32:05,VALID,1007.81,VALID,0,VALID,104,VALID,0,VALID,23.5186,VALID,55,VALID,0.689844,
2012-01-19, 03:33:05,VALID,1007.81,VALID,0,VALID,104,VALID,0,VALID,23.5186,VALID,55,VALID,0.329297,
2012-01-19, 03:34:05,VALID,1007.83,VALID,0,VALID,104,VALID,0,VALID,23.4797,VALID,53,VALID,0.295312,
2012-01-19, 03:35:05,VALID,1007.84,VALID,0,VALID,104,VALID,0,VALID,23.4797,VALID,53,VALID,0.0863281,
2012-01-19, 03:36:05,VALID,1007.86,VALID,0,VALID,104,VALID,0,VALID,23.4602,VALID,53,VALID,0,
2012-01-19, 03:37:05,VALID,1007.85,VALID,0,VALID,104,VALID,0,VALID,23.4602,VALID,53,VALID,0.227734,
2012-01-19, 03:38:05,VALID,1007.85,VALID,0,VALID,104,VALID,0,VALID,23.4407,VALID,53,VALID,0.135937,
2012-01-19, 03:39:05,VALID,1007.87,VALID,0,VALID,104,VALID,0,VALID,23.4212,VALID,53,VALID,0.439453,
2012-01-19, 03:40:05,VALID,1007.86,VALID,0,VALID,104,VALID,0,VALID,23.423,VALID,53,VALID,0.332812,
2012-01-19, 03:41:04,VALID,1007.88,VALID,0,VALID,104,VALID,0,VALID,23.4017,VALID,53,VALID,0.305859,
2012-01-19, 03:42:04,VALID,1007.87,VALID,0,VALID,104,VALID,0,VALID,23.4035,VALID,44,VALID,0.214062,
2012-01-19, 03:43:04,VALID,1007.9,VALID,0,VALID,104,VALID,0,VALID,23.3823,VALID,44,VALID,0.237109,
2012-01-19, 03:44:04,VALID,1007.89,VALID,0,VALID,104,VALID,0,VALID,23.3823,VALID,44,VALID,0.245703,
2012-01-19, 03:45:04,VALID,1007.89,VALID,0,VALID,104,VALID,0,VALID,23.384,VALID,44,VALID,0.255859,
2012-01-19, 03:46:04,VALID,1007.9,VALID,0,VALID,104,VALID,0,VALID,23.3628,VALID,45,VALID,0.43125,
2012-01-19, 03:47:04,VALID,1007.94,VALID,0,VALID,104,VALID,0,VALID,23.3433,VALID,44,VALID,0.0703125,
2012-01-19, 03:48:04,VALID,1007.93,VALID,0,VALID,104,VALID,0,VALID,23.3433,VALID,45,VALID,0,
2012-01-19, 03:49:04,VALID,1007.94,VALID,0,VALID,104,VALID,0,VALID,23.3433,VALID,45,VALID,0,
2012-01-19, 03:50:04,VALID,1007.95,VALID,0,VALID,104,VALID,0,VALID,23.3433,VALID,44,VALID,0,
2012-01-19, 03:51:04,VALID,1007.95,VALID,0,VALID,104,VALID,0,VALID,23.3238,VALID,44,VALID,0,
2012-01-19, 03:52:04,VALID,1007.97,VALID,0,VALID,104,VALID,0,VALID,23.3238,VALID,44,VALID,0,
2012-01-19, 03:53:04,VALID,1007.96,VALID,0,VALID,104,VALID,0,VALID,23.3238,VALID,44,VALID,0.259766,
2012-01-19, 03:54:04,VALID,1007.95,VALID,0,VALID,104,VALID,0,VALID,23.3238,VALID,44,VALID,0.223047,